Precipitable_Water
0.46 0.45 0.44 0.46 0.46 0.45 0.44 0.43 0.43 0.41 0.40 0.41 0.42 0.42 0.46 0.50 0.55 0.57 0.58 0.58 0.57 0.57 0.57 0.59 0.62 0.67 0.70 0.73 0.76 0.78 0.78 0.79 0.82 0.84 0.86 0.88 0.88 0.89 0.85 0.83 0.81 0.79 0.79 0.78 0.75 0.73 0.72 0.71 0.68 0.66 0.61 0.57 0.52 0.48 0.42 0.40 0.40 0.38 0.38 0.39 0.38 0.38
0.46 0.46 0.46 0.45 0.45 0.44 0.44 0.44 0.43 0.42 0.41 0.41 0.42 0.45 0.48 0.51 0.54 0.56 0.55 0.57 0.58 0.57 0.60 0.62 0.65 0.67 0.70 0.74 0.76 0.76 0.77 0.80 0.82 0.83 0.84 0.84 0.86 0.87 0.84 0.82 0.80 0.81 0.79 0.77 0.74 0.73 0.71 0.68 0.66 0.60 0.56 0.53 0.47 0.41 0.38 0.39 0.39 0.38 0.37 0.37 0.37 0.37
0.46 0.48 0.50 0.49 0.49 0.48 0.46 0.45 0.43 0.43 0.43 0.42 0.42 0.42 0.45 0.48 0.51 0.53 0.55 0.58 0.58 0.59 0.58 0.60 0.63 0.67 0.73 0.77 0.79 0.78 0.80 0.81 0.83 0.84 0.84 0.84 0.85 0.84 0.81 0.79 0.79 0.81 0.79 0.76 0.75 0.73 0.69 0.67 0.61 0.56 0.53 0.47 0.40 0.37 0.38 0.38 0.37 0.36 0.36 0.36 0.37 0.37
0.48 0.50 0.51 0.52 0.51 0.49 0.47 0.47 0.46 0.45 0.44 0.44 0.45 0.45 0.46 0.47 0.48 0.51 0.55 0.58 0.60 0.59 0.60 0.62 0.66 0.70 0.74 0.76 0.78 0.78 0.80 0.81 0.82 0.83 0.84 0.83 0.83 0.83 0.80 0.78 0.78 0.77 0.76 0.75 0.74 0.72 0.69 0.65 0.57 0.53 0.48 0.40 0.36 0.36 0.37 0.37 0.36 0.36 0.36 0.36 0.36 0.36
0.47 0.49 0.51 0.52 0.53 0.53 0.52 0.50 0.48 0.47 0.47 0.47 0.47 0.46 0.47 0.50 0.51 0.54 0.57 0.58 0.59 0.60 0.63 0.66 0.67 0.70 0.73 0.74 0.76 0.77 0.79 0.81 0.82 0.84 0.82 0.82 0.81 0.83 0.81 0.79 0.78 0.77 0.75 0.74 0.73 0.69 0.67 0.60 0.53 0.49 0.42 0.37 0.35 0.35 0.36 0.37 0.37 0.36 0.36 0.36 0.35 0.36
0.43 0.45 0.46 0.49 0.52 0.54 0.54 0.53 0.52 0.51 0.50 0.49 0.48 0.47 0.49 0.51 0.54 0.56 0.57 0.58 0.59 0.62 0.63 0.65 0.68 0.71 0.73 0.73 0.75 0.77 0.80 0.81 0.81 0.83 0.83 0.82 0.81 0.80 0.80 0.80 0.81 0.79 0.75 0.74 0.70 0.68 0.63 0.54 0.50 0.44 0.38 0.35 0.35 0.35 0.35 0.37 0.37 0.37 0.36 0.36 0.35 0.36
0.41 0.42 0.44 0.45 0.48 0.51 0.54 0.55 0.55 0.54 0.52 0.51 0.49 0.48 0.50 0.52 0.55 0.56 0.57 0.58 0.58 0.61 0.63 0.65 0.68 0.70 0.72 0.74 0.76 0.78 0.80 0.80 0.81 0.83 0.82 0.82 0.82 0.81 0.79 0.77 0.82 0.80 0.75 0.73 0.69 0.65 0.57 0.51 0.46 0.40 0.36 0.35 0.36 0.36 0.36 0.36 0.37 0.36 0.36 0.36 0.36 0.38
0.41 0.43 0.44 0.45 0.46 0.48 0.50 0.52 0.54 0.54 0.54 0.53 0.52 0.50 0.50 0.50 0.52 0.53 0.54 0.57 0.58 0.60 0.63 0.66 0.68 0.70 0.72 0.74 0.76 0.77 0.79 0.80 0.80 0.80 0.80 0.83 0.82 0.81 0.80 0.79 0.80 0.79 0.76 0.74 0.68 0.62 0.54 0.49 0.44 0.38 0.36 0.36 0.38 0.38 0.37 0.37 0.37 0.37 0.36 0.37 0.38 0.40
0.36 0.41 0.44 0.46 0.46 0.46 0.48 0.49 0.50 0.52 0.53 0.53 0.54 0.53 0.51 0.51 0.51 0.51 0.51 0.51 0.53 0.54 0.57 0.61 0.64 0.68 0.70 0.72 0.75 0.76 0.77 0.78 0.77 0.78 0.81 0.85 0.84 0.80 0.77 0.75 0.76 0.77 0.77 0.73 0.65 0.58 0.52 0.47 0.42 0.38 0.36 0.37 0.38 0.37 0.37 0.37 0.37 0.37 0.37 0.39 0.40 0.42
0.35 0.37 0.40 0.44 0.45 0.46 0.46 0.47 0.48 0.49 0.51 0.52 0.54 0.54 0.53 0.53 0.52 0.51 0.51 0.51 0.51 0.51 0.53 0.57 0.60 0.63 0.66 0.68 0.70 0.71 0.72 0.73 0.72 0.78 0.87 0.87 0.82 0.74 0.75 0.76 0.77 0.77 0.75 0.69 0.61 0.56 0.51 0.45 0.40 0.37 0.37 0.37 0.37 0.37 0.37 0.37 0.37 0.36 0.38 0.40 0.42 0.43
0.31 0.33 0.36 0.39 0.42 0.43 0.44 0.45 0.47 0.48 0.50 0.52 0.54 0.54 0.54 0.54 0.53 0.51 0.51 0.51 0.51 0.51 0.54 0.57 0.59 0.61 0.63 0.64 0.65 0.66 0.65 0.70 0.76 0.81 0.83 0.79 0.79 0.80 0.77 0.78 0.79 0.75 0.72 0.65 0.58 0.54 0.48 0.42 0.38 0.37 0.37 0.38 0.38 0.38 0.37 0.37 0.37 0.37 0.39 0.41 0.43 0.44
0.31 0.33 0.35 0.37 0.39 0.42 0.44 0.44 0.45 0.46 0.48 0.49 0.52 0.53 0.54 0.54 0.52 0.51 0.51 0.51 0.52 0.54 0.56 0.58 0.59 0.60 0.61 0.61 0.61 0.64 0.71 0.74 0.73 0.69 0.71 0.81 0.83 0.81 0.75 0.73 0.74 0.75 0.70 0.60 0.55 0.50 0.45 0.40 0.38 0.37 0.37 0.38 0.38 0.37 0.37 0.37 0.38 0.39 0.41 0.42 0.43 0.44
0.32 0.33 0.34 0.35 0.38 0.40 0.43 0.46 0.47 0.48 0.48 0.50 0.51 0.52 0.54 0.54 0.52 0.51 0.51 0.52 0.54 0.56 0.57 0.59 0.59 0.61 0.62 0.63 0.67 0.71 0.71 0.68 0.72 0.73 0.79 0.81 0.82 0.76 0.71 0.73 0.74 0.72 0.64 0.57 0.52 0.47 0.43 0.40 0.39 0.38 0.38 0.38 0.38 0.37 0.38 0.38 0.39 0.41 0.42 0.43 0.42 0.42
0.33 0.32 0.33 0.34 0.37 0.40 0.42 0.44 0.47 0.48 0.48 0.50 0.51 0.53 0.55 0.54 0.53 0.52 0.52 0.53 0.55 0.56 0.57 0.59 0.61 0.62 0.62 0.65 0.65 0.67 0.67 0.66 0.71 0.74 0.76 0.75 0.72 0.70 0.75 0.74 0.72 0.66 0.58 0.53 0.49 0.46 0.43 0.40 0.39 0.39 0.39 0.39 0.39 0.38 0.39 0.39 0.40 0.42 0.42 0.42 0.42 0.42
0.35 0.36 0.36 0.36 0.37 0.38 0.41 0.44 0.45 0.46 0.49 0.51 0.53 0.55 0.54 0.54 0.53 0.53 0.53 0.54 0.55 0.57 0.59 0.61 0.59 0.60 0.61 0.62 0.69 0.73 0.70 0.65 0.71 0.75 0.74 0.71 0.73 0.75 0.74 0.72 0.66 0.59 0.55 0.51 0.47 0.44 0.42 0.40 0.40 0.41 0.41 0.40 0.40 0.39 0.39 0.40 0.41 0.42 0.42 0.42 0.42 0.42
0.39 0.40 0.40 0.38 0.38 0.39 0.42 0.44 0.44 0.47 0.50 0.52 0.54 0.54 0.54 0.55 0.55 0.55 0.54 0.55 0.56 0.58 0.60 0.60 0.62 0.61 0.63 0.66 0.66 0.67 0.69 0.71 0.72 0.73 0.75 0.75 0.74 0.73 0.71 0.67 0.60 0.55 0.52 0.49 0.46 0.44 0.42 0.41 0.42 0.41 0.41 0.41 0.40 0.40 0.40 0.41 0.41 0.41 0.41 0.41 0.42 0.42
0.41 0.42 0.42 0.40 0.41 0.42 0.42 0.42 0.45 0.47 0.49 0.51 0.51 0.53 0.53 0.54 0.55 0.55 0.56 0.57 0.58 0.60 0.62 0.63 0.63 0.66 0.67 0.67 0.69 0.70 0.72 0.73 0.74 0.74 0.74 0.73 0.72 0.69 0.66 0.60 0.55 0.53 0.51 0.49 0.47 0.44 0.42 0.42 0.43 0.42 0.42 0.42 0.41 0.41 0.41 0.41 0.41 0.41 0.41 0.42 0.42 0.43
0.42 0.42 0.42 0.43 0.44 0.45 0.46 0.45 0.46 0.46 0.47 0.51 0.51 0.52 0.53 0.54 0.54 0.54 0.56 0.56 0.58 0.59 0.62 0.63 0.63 0.64 0.66 0.67 0.68 0.68 0.68 0.69 0.69 0.68 0.69 0.69 0.68 0.66 0.62 0.57 0.56 0.53 0.51 0.49 0.47 0.44 0.42 0.43 0.44 0.43 0.43 0.43 0.42 0.41 0.41 0.41 0.41 0.41 0.41 0.42 0.42 0.43
0.45 0.45 0.45 0.45 0.46 0.47 0.48 0.50 0.49 0.48 0.48 0.49 0.50 0.51 0.52 0.52 0.52 0.53 0.55 0.56 0.57 0.58 0.60 0.62 0.63 0.63 0.64 0.64 0.64 0.64 0.64 0.65 0.65 0.67 0.68 0.66 0.64 0.60 0.56 0.55 0.54 0.53 0.51 0.49 0.47 0.44 0.43 0.44 0.45 0.44 0.44 0.43 0.42 0.41 0.41 0.41 0.41 0.41 0.41 0.42 0.43 0.44
0.47 0.47 0.46 0.46 0.47 0.49 0.51 0.52 0.52 0.51 0.49 0.48 0.50 0.50 0.50 0.50 0.51 0.53 0.55 0.57 0.59 0.60 0.61 0.63 0.63 0.63 0.63 0.63 0.62 0.63 0.64 0.66 0.66 0.66 0.65 0.62 0.58 0.56 0.56 0.55 0.54 0.52 0.51 0.49 0.46 0.45 0.44 0.45 0.46 0.45 0.44 0.43 0.42 0.41 0.40 0.40 0.40 0.40 0.41 0.42 0.43 0.45
0.47 0.46 0.47 0.47 0.46 0.48 0.51 0.52 0.52 0.51 0.49 0.49 0.50 0.50 0.49 0.49 0.51 0.54 0.55 0.57 0.60 0.62 0.63 0.64 0.64 0.64 0.63 0.63 0.63 0.64 0.63 0.63 0.63 0.63 0.62 0.60 0.59 0.57 0.57 0.56 0.54 0.52 0.51 0.50 0.47 0.46 0.45 0.45 0.45 0.45 0.44 0.43 0.42 0.41 0.40 0.40 0.40 0.40 0.41 0.42 0.44 0.47
0.48 0.46 0.44 0.44 0.46 0.49 0.51 0.52 0.52 0.51 0.50 0.50 0.52 0.51 0.51 0.53 0.56 0.59 0.60 0.61 0.62 0.64 0.65 0.65 0.64 0.64 0.63 0.63 0.64 0.64 0.64 0.64 0.63 0.61 0.60 0.59 0.58 0.57 0.57 0.55 0.54 0.52 0.51 0.50 0.49 0.48 0.47 0.46 0.45 0.45 0.44 0.42 0.41 0.40 0.39 0.39 0.39 0.40 0.41 0.44 0.46 0.47
0.46 0.45 0.44 0.45 0.47 0.49 0.50 0.51 0.50 0.50 0.51 0.51 0.51 0.51 0.53 0.57 0.59 0.61 0.61 0.62 0.62 0.63 0.64 0.65 0.65 0.65 0.65 0.66 0.66 0.66 0.65 0.65 0.64 0.62 0.60 0.59 0.58 0.57 0.56 0.54 0.53 0.51 0.50 0.50 0.49 0.48 0.48 0.47 0.46 0.45 0.44 0.42 0.41 0.40 0.39 0.39 0.40 0.41 0.43 0.45 0.47 0.48
0.44 0.45 0.46 0.48 0.48 0.49 0.50 0.51 0.50 0.50 0.51 0.51 0.50 0.52 0.56 0.58 0.59 0.60 0.60 0.60 0.60 0.61 0.62 0.63 0.64 0.65 0.66 0.66 0.66 0.65 0.64 0.65 0.64 0.63 0.61 0.59 0.58 0.57 0.55 0.54 0.52 0.51 0.49 0.49 0.48 0.48 0.47 0.48 0.47 0.45 0.44 0.42 0.41 0.39 0.39 0.39 0.41 0.43 0.44 0.46 0.47 0.49
0.43 0.44 0.46 0.48 0.50 0.50 0.51 0.51 0.50 0.50 0.51 0.50 0.52 0.56 0.57 0.58 0.59 0.59 0.59 0.60 0.60 0.61 0.62 0.64 0.64 0.65 0.65 0.65 0.65 0.64 0.63 0.63 0.62 0.60 0.60 0.58 0.57 0.56 0.54 0.53 0.51 0.50 0.48 0.47 0.47 0.48 0.47 0.47 0.47 0.45 0.43 0.42 0.40 0.39 0.39 0.40 0.42 0.45 0.46 0.47 0.49 0.51
0.45 0.46 0.48 0.49 0.51 0.52 0.53 0.52 0.50 0.51 0.50 0.51 0.55 0.56 0.57 0.58 0.58 0.59 0.58 0.59 0.59 0.60 0.61 0.62 0.63 0.63 0.63 0.63 0.63 0.62 0.61 0.61 0.60 0.59 0.58 0.58 0.56 0.54 0.52 0.51 0.50 0.49 0.47 0.46 0.46 0.47 0.47 0.47 0.46 0.45 0.43 0.41 0.39 0.38 0.39 0.42 0.44 0.47 0.48 0.50 0.52 0.53
0.43 0.44 0.45 0.48 0.49 0.50 0.51 0.51 0.50 0.49 0.49 0.52 0.55 0.55 0.55 0.56 0.56 0.57 0.56 0.57 0.58 0.58 0.59 0.60 0.60 0.60 0.61 0.61 0.61 0.60 0.59 0.59 0.58 0.57 0.56 0.56 0.54 0.53 0.51 0.50 0.49 0.48 0.47 0.46 0.45 0.45 0.46 0.45 0.45 0.43 0.42 0.40 0.38 0.38 0.40 0.44 0.47 0.50 0.52 0.54 0.54 0.52
0.44 0.44 0.44 0.46 0.48 0.49 0.50 0.51 0.50 0.48 0.50 0.53 0.54 0.54 0.55 0.54 0.54 0.54 0.54 0.55 0.56 0.57 0.58 0.57 0.58 0.58 0.59 0.59 0.59 0.59 0.59 0.58 0.57 0.56 0.55 0.54 0.53 0.52 0.50 0.49 0.48 0.46 0.45 0.44 0.43 0.43 0.43 0.43 0.42 0.40 0.40 0.39 0.38 0.39 0.43 0.47 0.51 0.54 0.56 0.55 0.52 0.51
0.42 0.42 0.43 0.44 0.47 0.48 0.50 0.50 0.51 0.52 0.53 0.53 0.54 0.55 0.55 0.55 0.54 0.54 0.54 0.54 0.54 0.55 0.56 0.56 0.56 0.56 0.57 0.58 0.58 0.57 0.57 0.57 0.56 0.55 0.53 0.53 0.51 0.50 0.48 0.46 0.45 0.44 0.43 0.42 0.42 0.42 0.42 0.41 0.40 0.39 0.38 0.38 0.38 0.40 0.46 0.52 0.55 0.57 0.56 0.53 0.52 0.52
0.43 0.43 0.44 0.44 0.47 0.48 0.49 0.50 0.50 0.51 0.51 0.52 0.53 0.53 0.53 0.52 0.52 0.52 0.52 0.52 0.52 0.52 0.53 0.52 0.52 0.52 0.52 0.53 0.53 0.52 0.52 0.52 0.52 0.51 0.50 0.50 0.49 0.48 0.47 0.46 0.45 0.44 0.43 0.43 0.43 0.42 0.41 0.39 0.38 0.38 0.37 0.37 0.37 0.42 0.50 0.54 0.56 0.56 0.54 0.52 0.53 0.52
0.38 0.39 0.40 0.41 0.43 0.44 0.45 0.46 0.47 0.48 0.48 0.49 0.49 0.50 0.49 0.49 0.49 0.49 0.49 0.50 0.50 0.50 0.50 0.50 0.51 0.51 0.51 0.51 0.51 0.51 0.52 0.51 0.51 0.51 0.51 0.51 0.51 0.50 0.49 0.48 0.46 0.45 0.45 0.44 0.42 0.40 0.39 0.38 0.37 0.37 0.36 0.34 0.36 0.44 0.52 0.55 0.55 0.54 0.53 0.53 0.54 0.51
0.41 0.41 0.42 0.43 0.44 0.45 0.45 0.46 0.47 0.48 0.48 0.48 0.48 0.48 0.46 0.46 0.46 0.47 0.47 0.48 0.48 0.49 0.49 0.50 0.50 0.51 0.51 0.51 0.51 0.51 0.51 0.53 0.53 0.52 0.51 0.51 0.51 0.50 0.49 0.48 0.46 0.45 0.44 0.42 0.41 0.40 0.38 0.37 0.35 0.33 0.34 0.34 0.38 0.47 0.53 0.54 0.53 0.52 0.53 0.55 0.54 0.49
0.43 0.43 0.43 0.44 0.46 0.46 0.47 0.47 0.48 0.49 0.50 0.50 0.51 0.50 0.49 0.48 0.47 0.47 0.47 0.47 0.48 0.49 0.49 0.49 0.49 0.49 0.49 0.49 0.49 0.49 0.49 0.50 0.51 0.52 0.51 0.51 0.51 0.50 0.49 0.48 0.47 0.46 0.45 0.43 0.41 0.41 0.40 0.39 0.37 0.35 0.35 0.36 0.40 0.49 0.53 0.53 0.51 0.51 0.53 0.54 0.51 0.46
0.43 0.43 0.44 0.45 0.46 0.47 0.47 0.48 0.49 0.49 0.50 0.51 0.51 0.51 0.50 0.49 0.48 0.47 0.47 0.47 0.48 0.48 0.48 0.49 0.49 0.49 0.49 0.49 0.49 0.48 0.48 0.47 0.47 0.48 0.49 0.50 0.49 0.49 0.48 0.48 0.47 0.46 0.45 0.43 0.41 0.39 0.39 0.38 0.37 0.37 0.37 0.37 0.40 0.46 0.50 0.50 0.50 0.51 0.51 0.50 0.48 0.42
0.44 0.45 0.46 0.46 0.47 0.47 0.48 0.48 0.49 0.50 0.51 0.51 0.51 0.51 0.50 0.50 0.49 0.47 0.47 0.47 0.47 0.47 0.47 0.47 0.48 0.48 0.48 0.48 0.48 0.48 0.48 0.48 0.47 0.47 0.48 0.49 0.49 0.48 0.48 0.47 0.46 0.45 0.44 0.42 0.41 0.39 0.37 0.36 0.36 0.36 0.36 0.37 0.40 0.44 0.46 0.47 0.47 0.47 0.47 0.47 0.43 0.40
0.45 0.46 0.46 0.47 0.48 0.48 0.48 0.48 0.49 0.50 0.51 0.52 0.51 0.51 0.50 0.50 0.49 0.48 0.47 0.47 0.47 0.46 0.46 0.46 0.46 0.46 0.46 0.47 0.47 0.47 0.47 0.47 0.47 0.46 0.46 0.46 0.46 0.46 0.46 0.46 0.45 0.44 0.43 0.42 0.40 0.38 0.37 0.36 0.35 0.36 0.37 0.37 0.39 0.42 0.43 0.42 0.42 0.42 0.42 0.42 0.39 0.36
0.46 0.46 0.47 0.48 0.48 0.48 0.48 0.48 0.49 0.51 0.51 0.52 0.52 0.51 0.50 0.50 0.49 0.49 0.48 0.47 0.47 0.46 0.46 0.46 0.45 0.45 0.45 0.45 0.45 0.45 0.45 0.45 0.46 0.45 0.44 0.44 0.44 0.43 0.43 0.43 0.43 0.43 0.42 0.41 0.39 0.38 0.36 0.36 0.36 0.36 0.37 0.37 0.37 0.37 0.36 0.36 0.34 0.34 0.36 0.38 0.37 0.34
0.46 0.47 0.48 0.48 0.48 0.48 0.48 0.48 0.49 0.50 0.51 0.51 0.51 0.50 0.50 0.50 0.50 0.49 0.48 0.47 0.47 0.46 0.46 0.45 0.45 0.44 0.44 0.43 0.43 0.43 0.43 0.43 0.43 0.43 0.43 0.43 0.43 0.42 0.41 0.41 0.41 0.41 0.41 0.40 0.38 0.37 0.36 0.36 0.35 0.35 0.34 0.33 0.33 0.32 0.32 0.29 0.28 0.28 0.29 0.30 0.29 0.27
Wind_Speed
35 36 37 38 39 39 38 38 38 39 40 40 41 41 41 40 39 39 39 39 38 38 38 39 39 38 38 38 38 38 38 38 37 37 36 36 36 35 35 35 35 34 33 33 32 32 31 31 30 30 30 29 28 28 27 27 27 27 27 27 28 28
33 35 36 37 38 38 38 38 38 39 39 40 41 41 41 40 40 40 39 39 39 39 39 39 39 39 39 39 38 38 39 38 38 37 37 37 36 36 36 36 35 34 33 33 33 32 32 31 31 30 30 29 28 28 27 27 27 27 27 28 28 29
32 34 35 36 37 38 38 38 38 38 39 39 40 41 41 41 41 40 40 40 40 40 40 40 40 40 40 40 39 39 39 39 38 38 37 37 37 37 36 36 35 34 34 33 33 33 32 32 31 30 30 29 28 28 28 28 28 28 28 28 29 29
32 33 34 35 36 37 37 38 38 38 38 38 39 40 40 40 40 40 41 40 40 40 40 40 40 40 40 40 40 40 39 39 38 38 38 38 38 37 37 36 35 35 34 34 34 34 33 32 31 30 30 29 29 28 28 28 28 28 28 29 29 29
32 32 34 35 36 36 37 37 37 37 37 37 38 38 39 39 39 40 41 41 41 41 41 41 40 40 40 40 40 40 39 39 39 39 39 38 38 38 37 36 36 35 35 34 35 34 33 32 31 31 30 30 29 29 29 29 29 29 29 29 29 30
31 32 33 34 35 36 36 37 37 37 37 36 37 37 38 38 38 39 40 41 41 41 41 41 41 41 41 41 41 40 40 40 40 39 39 39 38 38 37 37 36 36 35 35 35 34 33 32 31 31 30 30 29 29 29 29 29 29 29 29 30 30
30 31 32 32 33 34 35 36 37 37 37 37 37 37 37 37 37 38 39 40 40 40 41 41 41 41 41 41 41 40 40 40 40 40 40 39 39 38 37 37 37 36 36 36 35 34 32 32 31 31 30 30 29 29 29 29 29 29 30 30 30 31
29 30 31 31 32 33 34 35 36 37 37 37 37 37 37 37 37 38 39 39 39 40 40 40 41 41 41 40 40 40 40 40 39 39 39 39 39 38 37 37 37 37 36 36 34 33 32 32 31 31 30 30 29 29 29 29 29 30 30 30 31 31
29 29 30 30 31 32 33 34 34 35 37 38 38 38 38 38 38 38 39 39 40 40 40 40 40 40 40 40 40 40 39 39 39 39 39 38 38 37 37 37 37 37 36 35 33 32 32 32 31 31 30 30 30 29 30 30 30 30 30 31 31 32
28 28 29 29 30 32 33 33 34 34 35 36 37 38 38 38 38 39 39 39 40 40 40 40 40 40 40 40 40 40 39 39 39 39 38 38 37 37 37 37 37 36 35 34 33 32 32 32 31 31 30 30 30 30 30 30 30 31 31 31 32 33
26 27 27 28 29 31 32 32 33 34 34 34 35 36 37 37 38 38 39 39 40 40 40 40 40 40 40 40 39 39 39 38 38 38 38 37 36 36 36 36 36 35 34 33 32 32 32 32 31 31 31 31 31 31 31 31 31 31 31 32 33 33
25 26 26 27 28 29 30 31 31 32 33 33 33 34 35 36 36 37 37 38 38 39 39 39 38 38 38 38 38 38 37 37 37 37 37 36 35 35 35 35 34 34 33 33 32 32 32 32 31 31 31 31 31 31 31 31 31 32 32 33 33 34
26 26 27 27 28 28 30 31 31 31 32 32 32 32 33 34 35 35 35 36 36 36 37 36 36 36 36 36 36 36 36 36 36 36 35 35 34 34 34 34 33 33 33 33 32 32 32 32 32 31 31 31 31 31 32 32 32 33 33 34 34 34
27 27 28 28 29 29 30 31 31 31 32 32 32 32 32 32 32 33 33 33 34 34 34 34 34 35 35 35 35 35 35 35 35 34 34 34 34 33 33 33 33 33 33 33 32 32 32 32 32 32 32 31 31 32 32 33 33 34 34 34 34 35
28 28 29 29 30 31 32 31 31 31 31 31 31 32 32 32 31 31 31 31 32 32 32 33 33 33 33 33 34 34 33 33 34 33 33 33 33 33 33 33 33 33 33 33 32 32 32 32 32 32 32 32 32 32 33 34 34 34 34 34 35 35
29 29 29 30 30 31 31 32 31 31 30 30 30 31 31 32 31 31 31 30 30 31 31 31 31 31 31 32 32 32 32 32 33 33 33 33 33 33 33 33 33 32 32 32 32 32 32 32 32 32 32 33 33 33 34 34 34 34 34 35 35 35
30 29 30 30 30 30 30 31 30 30 29 29 30 30 30 31 31 31 31 31 30 31 31 31 31 31 31 31 31 31 31 32 32 32 33 33 33 33 33 32 32 32 32 32 32 32 32 33 33 33 33 33 33 33 34 34 34 34 35 35 35 36
31 31 30 30 29 29 30 30 30 29 29 28 29 29 30 30 31 31 31 31 31 31 31 31 31 31 31 31 31 31 32 32 32 33 33 32 32 32 32 32 32 32 32 32 33 33 33 33 34 34 34 34 34 34 34 35 35 35 35 35 36 36
32 31 31 29 29 30 30 30 30 29 29 28 29 29 29 30 30 30 31 31 31 32 32 32 32 32 32 32 32 33 33 33 33 32 32 32 32 32 32 32 32 32 33 33 34 34 34 34 34 34 34 34 34 35 35 35 35 35 35 36 36 36
31 31 30 29 29 30 30 30 30 29 29 29 29 29 29 30 30 30 30 30 30 31 32 32 33 32 32 33 33 33 32 32 32 32 32 32 32 32 32 32 33 33 34 34 34 35 35 35 35 35 35 35 35 35 36 36 35 36 36 36 36 36
31 31 30 29 29 29 29 29 29 29 29 29 29 29 29 30 30 30 30 30 31 31 32 32 33 33 33 32 32 32 32 32 32 32 32 32 32 33 33 33 34 34 34 35 35 35 35 35 35 36 36 36 36 36 36 36 36 36 36 36 36 36
31 31 30 30 30 29 29 29 28 28 28 28 28 29 30 30 31 31 31 31 31 31 32 32 32 32 33 32 32 32 32 32 32 32 33 33 33 34 34 34 34 35 35 35 35 36 36 36 36 36 36 36 36 36 37 37 36 36 36 36 36 37
30 31 30 30 29 28 28 28 28 28 27 27 28 29 30 30 30 31 31 31 32 32 32 32 32 33 33 33 33 32 33 33 33 33 34 34 34 34 34 35 35 35 35 36 36 36 36 37 37 37 37 37 37 37 37 37 36 36 36 37 37 37
26 27 28 28 27 27 27 28 28 28 28 28 28 29 29 29 30 30 31 31 31 32 32 32 32 33 33 33 33 33 33 33 34 34 34 34 34 35 35 35 35 35 35 36 36 36 37 37 37 37 37 38 37 37 37 37 37 37 37 37 37 37
23 24 25 25 25 26 26 27 28 28 28 29 29 28 28 29 29 30 30 30 31 31 32 32 32 32 32 33 33 33 33 33 33 34 34 34 34 34 35 35 35 35 36 36 36 37 37 37 38 38 38 38 37 37 37 37 37 37 37 37 38 37
22 22 22 23 23 24 25 25 26 26 27 27 27 27 27 28 28 29 29 29 30 30 31 31 31 31 32 32 32 32 32 33 33 34 34 35 35 35 35 36 36 36 36 36 37 37 37 37 38 38 38 38 38 38 37 37 37 37 37 38 38 37
21 21 21 21 21 22 23 23 23 24 25 25 25 25 26 26 26 27 27 28 28 29 29 30 30 31 31 31 32 32 32 33 33 34 34 35 35 36 36 36 36 36 36 36 37 37 37 38 38 38 38 38 38 38 37 37 38 37 38 38 38 38
19 19 19 19 20 21 21 21 22 22 22 23 23 23 24 24 25 25 26 26 27 27 28 29 29 30 31 31 32 32 33 33 33 34 34 35 35 36 36 36 36 36 36 37 37 37 38 38 38 38 38 38 38 38 38 38 38 38 38 38 38 38
18 18 18 18 19 19 19 20 20 20 21 21 21 22 22 23 23 24 24 25 26 26 27 28 28 29 30 30 31 32 32 33 33 34 34 35 35 36 36 36 37 37 37 37 37 37 38 38 38 38 38 38 38 38 38 38 38 38 39 38 38 38
18 18 18 18 18 18 18 19 19 20 20 20 21 21 22 22 23 23 24 24 25 25 26 27 27 28 29 30 31 31 32 33 34 34 35 36 36 37 37 37 37 37 37 37 37 37 37 38 38 39 39 38 38 38 38 38 39 39 39 39 38 38
18 18 18 18 18 19 19 19 20 20 20 21 21 22 22 23 23 24 24 25 26 26 27 27 28 29 29 30 31 32 33 33 34 35 35 36 37 37 38 38 39 39 38 38 38 38 38 38 39 39 39 39 39 38 39 39 39 39 39 39 39 38
19 19 19 20 20 20 20 21 21 21 22 22 23 23 24 24 24 25 25 26 27 27 27 28 29 29 30 30 31 31 32 33 34 35 35 36 37 38 38 39 39 39 39 39 39 39 39 39 39 39 40 40 39 39 40 40 40 40 40 40 39 39
21 21 21 21 21 21 21 22 22 22 23 23 24 24 24 24 25 25 26 26 27 27 27 28 28 29 29 30 30 31 32 32 34 35 35 36 36 37 38 38 39 39 39 39 39 39 40 40 39 39 40 41 41 41 41 41 41 41 41 41 40 40
22 22 22 22 22 22 22 22 23 23 24 24 24 25 25 25 25 25 26 26 27 27 27 28 28 29 29 30 30 31 31 32 33 34 35 35 36 36 37 37 38 38 38 39 39 39 39 40 40 40 41 41 42 42 42 42 42 42 42 41 41 41
22 22 22 22 22 23 23 23 24 24 24 25 25 26 26 26 26 26 26 27 27 27 28 28 28 29 29 29 30 31 31 32 33 33 34 35 36 36 37 37 37 38 38 38 39 39 40 40 40 41 41 42 42 42 42 42 42 42 42 42 42 42
23 23 23 23 23 24 24 25 25 25 25 26 26 27 27 27 27 27 27 28 28 28 28 28 29 29 29 30 30 31 32 32 33 33 34 34 35 36 37 37 38 38 38 39 39 40 40 41 41 41 41 42 42 42 42 42 42 43 43 43 44 44
23 23 24 24 24 25 26 26 26 27 27 27 27 28 28 28 28 28 28 28 29 29 29 30 30 30 30 30 31 31 32 32 33 34 34 35 35 35 36 37 38 38 39 39 40 40 41 41 42 42 42 42 42 43 42 43 43 44 45 45 46 46
24 25 25 25 26 27 27 27 28 28 28 28 28 29 29 29 29 29 30 30 30 30 30 31 31 31 31 31 31 31 32 32 33 34 34 35 36 36 37 37 38 39 39 40 41 41 42 42 42 43 43 43 44 44 44 45 45 46 46 47 47 48
Wind_Direction
248 248 247 246 246 246 248 249 249 248 247 246 246 246 246 246 247 247 247 248 248 248 248 248 249 250 250 251 252 252 252 253 255 256 256 257 258 259 260 262 263 262 263 265 267 268 267 268 269 267 266 266 266 267 269 271 274 276 280 282 285 288
249 249 248 248 246 246 247 248 249 249 248 247 247 246 246 246 247 247 247 248 249 249 249 249 249 250 250 251 252 252 253 253 255 255 256 257 258 258 260 263 262 261 262 264 266 267 267 267 267 266 265 265 265 267 269 271 273 276 279 282 285 288
250 249 249 249 247 246 247 248 248 249 249 248 247 246 246 246 247 247 247 248 249 249 250 250 250 250 251 251 252 253 253 254 255 256 256 257 257 258 261 262 261 260 261 263 265 266 266 266 265 264 263 263 264 266 268 270 273 276 279 282 285 289
251 250 249 249 248 247 246 247 248 248 249 249 248 247 247 247 248 248 248 248 249 249 250 250 251 251 251 252 252 253 254 255 255 256 256 256 257 259 260 261 260 260 261 262 264 265 265 264 263 261 261 262 263 265 268 270 273 276 279 282 285 288
254 252 250 249 249 248 247 246 247 248 248 249 249 248 248 248 248 248 248 248 249 249 250 251 251 251 252 252 253 253 254 255 255 256 255 255 257 259 259 259 259 259 261 263 264 264 263 261 260 259 260 261 262 265 268 271 273 276 279 282 285 288
255 253 251 250 250 249 248 247 247 248 249 249 249 249 249 249 249 249 249 249 250 250 250 251 251 252 252 252 253 253 254 255 255 255 255 255 256 258 258 258 257 259 261 263 263 262 260 258 257 257 259 260 262 265 268 271 273 276 280 283 285 288
255 254 252 252 251 250 249 248 248 248 249 250 250 250 250 250 250 250 250 250 250 251 251 251 251 251 252 252 253 253 254 254 255 255 255 256 256 257 257 257 256 258 261 262 262 259 257 256 255 256 258 260 263 266 268 271 274 277 281 283 285 288
255 254 253 252 251 251 250 249 249 249 250 250 251 252 252 251 251 251 251 251 251 252 251 251 252 252 252 252 253 253 253 254 254 254 255 255 255 256 256 256 256 258 260 261 260 256 254 254 254 256 257 260 263 266 269 272 275 278 281 283 285 288
255 254 253 252 251 251 251 251 251 250 250 250 251 252 252 252 253 253 252 252 252 252 251 251 252 252 252 252 252 253 253 253 254 254 253 253 255 256 255 254 255 257 259 259 256 253 252 253 254 255 258 260 263 266 269 272 275 278 281 283 286 288
255 254 255 254 253 252 252 252 252 252 252 251 251 252 252 253 253 253 252 252 252 251 251 251 252 252 252 252 253 253 253 253 253 253 253 253 255 254 253 253 254 256 257 256 253 251 251 252 253 256 258 261 264 267 270 273 275 278 280 283 286 289
257 256 256 256 255 254 253 253 253 253 253 253 253 253 252 253 253 252 252 252 251 251 251 251 251 252 252 252 252 252 253 253 252 252 253 253 253 252 252 254 254 255 254 252 250 250 250 252 254 257 259 262 265 267 270 273 275 278 281 283 286 289
260 258 257 257 256 255 254 254 254 253 254 254 254 254 253 253 253 253 252 252 251 251 251 251 251 251 251 252 252 251 251 251 252 252 252 251 251 252 253 253 254 253 252 249 248 248 250 253 256 257 259 262 265 268 271 273 276 279 281 284 286 288
262 262 260 259 257 255 254 254 254 253 253 254 255 255 254 254 254 253 253 252 252 251 251 250 251 251 251 250 250 250 250 250 251 250 249 249 251 253 252 251 251 251 249 248 247 249 251 254 256 257 259 262 266 269 272 274 277 279 281 284 286 288
264 263 261 260 258 255 253 253 253 253 253 254 255 255 255 255 254 254 253 252 251 251 250 250 249 249 249 249 249 249 249 249 249 248 248 249 251 251 250 250 250 249 248 248 248 250 252 254 255 257 260 263 266 270 273 275 277 279 281 284 286 289
265 264 263 261 259 256 254 252 252 252 253 254 254 255 254 254 254 253 253 252 250 249 249 249 249 248 248 248 248 248 248 248 248 248 248 249 249 249 249 250 250 249 248 248 249 251 253 255 256 258 261 264 267 270 273 275 277 280 282 284 287 289
264 264 263 261 259 257 256 254 253 252 252 252 253 253 253 253 254 253 253 252 250 248 247 247 248 248 248 248 248 248 248 248 247 247 248 248 248 249 250 250 249 248 248 249 250 252 254 256 257 259 262 264 267 270 273 276 278 280 283 285 287 288
262 262 262 260 259 258 256 255 253 252 251 251 252 252 253 253 254 254 253 252 251 249 247 246 246 246 246 246 247 247 247 247 247 247 248 249 250 250 250 250 249 248 249 250 252 254 256 258 259 260 263 265 267 270 274 276 278 281 283 284 286 288
259 260 260 260 259 258 256 255 253 252 251 251 252 252 253 253 253 253 253 252 251 249 247 246 245 245 245 245 245 246 247 247 248 249 250 251 251 251 251 250 250 250 250 252 254 255 257 259 259 261 263 265 268 271 274 277 278 280 282 284 286 288
257 259 260 259 259 258 257 256 254 253 252 251 251 252 252 252 252 252 252 252 251 249 248 247 246 246 246 246 246 247 248 248 249 250 250 251 251 251 251 251 251 252 253 254 255 256 258 259 260 262 264 266 268 272 274 276 278 280 282 283 286 288
257 258 259 259 259 258 258 257 256 255 253 251 250 250 251 251 251 251 252 252 251 250 249 249 248 248 248 248 247 248 248 249 250 251 251 251 251 252 252 252 253 254 254 255 257 257 259 260 261 262 264 266 269 272 274 276 278 280 281 283 286 288
255 256 257 258 258 257 257 257 256 254 253 252 251 250 250 251 251 251 252 252 252 251 251 250 250 250 249 249 249 249 249 250 251 252 253 253 254 254 254 253 254 255 255 257 258 259 260 261 262 263 265 267 269 271 274 276 277 279 281 283 285 287
253 253 255 257 257 257 256 256 255 253 252 253 252 252 252 252 252 253 253 254 254 253 253 253 252 252 251 251 250 251 251 252 253 253 254 254 255 255 254 254 255 255 256 257 258 260 261 262 263 264 265 267 268 271 274 276 277 279 281 283 285 287
253 253 255 257 258 257 256 255 254 253 254 254 253 254 254 254 254 254 255 255 255 254 254 254 253 253 253 252 252 253 253 254 254 254 254 255 255 254 254 255 256 256 257 259 260 261 262 263 263 264 265 267 268 271 273 276 277 279 281 283 284 286
254 253 254 255 255 255 254 254 254 255 256 256 255 255 256 255 256 255 255 255 255 254 254 254 254 255 255 255 255 255 255 256 255 255 255 255 255 254 254 255 256 257 258 260 261 262 262 263 264 265 266 267 268 270 273 276 278 279 281 282 284 285
253 252 253 253 253 254 254 254 255 257 258 258 258 258 258 257 257 257 256 256 256 256 256 256 256 256 257 257 256 256 256 256 256 255 255 254 254 255 255 255 256 257 258 260 261 262 263 263 264 265 266 267 268 270 273 275 277 279 280 282 283 285
254 254 254 254 255 256 256 256 256 257 258 259 260 260 260 260 260 259 258 258 258 257 257 257 257 257 257 257 257 256 256 256 256 256 256 255 255 255 255 256 257 258 259 260 261 262 263 264 265 266 266 267 269 271 273 275 276 277 279 281 283 284
252 252 253 254 254 255 256 257 258 258 260 262 262 262 261 261 260 260 260 259 259 259 259 259 259 259 258 258 258 257 257 257 257 257 257 256 256 256 256 257 258 258 259 260 261 262 263 264 265 266 267 268 269 271 272 274 275 276 278 280 282 284
250 250 252 254 255 256 257 259 260 261 263 264 264 264 263 262 261 261 260 260 260 260 260 260 260 260 260 260 260 260 259 259 259 258 258 257 257 257 257 258 258 259 260 261 262 263 264 265 265 267 267 268 269 271 272 272 274 275 277 280 282 283
251 252 252 254 256 257 259 261 262 264 265 265 265 265 265 264 263 263 262 261 261 261 260 260 260 261 261 261 261 261 261 260 260 260 259 259 258 258 258 259 259 259 260 261 262 263 264 265 265 266 267 268 269 271 271 273 274 276 278 280 281 282
251 252 253 255 257 258 260 261 263 264 265 265 266 266 266 266 265 265 265 264 263 262 261 261 261 261 261 262 262 262 262 261 261 260 260 260 259 259 259 259 259 259 260 261 262 263 264 265 265 266 267 267 269 270 272 274 275 277 279 280 280 281
252 252 254 256 258 259 261 262 263 264 265 265 266 266 266 266 267 267 267 266 265 264 263 263 263 262 263 263 263 263 263 263 262 262 262 262 262 262 262 261 261 261 261 261 262 263 264 265 266 266 267 267 268 269 272 274 275 277 279 279 278 280
254 254 256 258 259 260 262 263 263 265 265 265 266 266 266 267 267 268 267 267 267 266 266 265 265 265 265 265 264 265 265 265 265 265 264 264 263 264 264 264 264 264 263 263 264 265 266 267 268 267 265 265 266 269 272 274 276 278 279 278 277 279
255 256 257 259 260 262 263 264 265 266 266 267 267 267 267 267 267 267 268 268 267 267 267 267 267 267 267 267 266 266 267 267 267 266 266 265 265 265 265 266 266 265 265 265 265 266 267 269 268 267 265 266 267 269 272 274 275 276 277 276 276 279
256 257 258 260 262 264 265 266 267 268 268 269 268 268 268 268 268 268 268 268 268 268 268 268 268 268 268 268 268 268 268 268 268 268 267 267 266 266 267 267 267 266 266 266 266 266 267 268 268 267 267 267 268 270 272 273 274 275 275 276 277 278
257 258 260 262 264 266 267 268 269 269 270 270 270 270 270 270 270 270 270 269 269 269 269 270 270 270 270 270 270 269 269 269 269 269 269 268 268 268 268 268 268 267 267 267 266 267 268 269 269 269 269 269 269 271 272 273 274 275 275 276 278 278
257 259 261 262 264 266 267 267 269 270 270 271 271 271 271 271 272 272 272 272 271 271 271 272 272 272 272 272 271 271 271 271 271 271 270 270 269 269 269 268 268 268 267 268 268 268 268 269 269 270 271 270 270 271 272 274 276 276 276 277 278 278
258 260 261 263 264 266 267 268 269 270 271 271 271 272 272 272 273 273 273 273 273 272 273 273 273 273 273 273 273 273 272 272 272 272 272 271 271 271 270 270 270 269 268 268 268 268 268 269 269 270 270 270 270 271 273 274 276 276 276 276 277 278
260 261 262 264 266 267 268 269 270 271 272 272 272 272 273 273 273 274 274 274 274 273 274 274 275 275 275 274 274 274 274 274 274 274 274 273 273 272 272 272 272 271 270 270 270 269 269 269 269 270 270 270 271 271 272 274 274 275 275 276 277 278